When you browse on this site, cookies collect data to enhance your experience and personalize the content and advertising you see.
Visit our Privacy Policy to learn more. By continuing to use the site, you agree to this use of cookies and data.
  • In Spain
  • List of Countries
  • For 7 days
  • Water Temperature
  • Satellite Maps
  • Weather Map
  • Weather Widgets
  • user-avatar
    Login

    Hourly Weather Wien

    Today, 17 February, Sunday

    Time Temperature Precipitation Wind Pressure Humidity
    00:00 +5°C° 0 mm 1 mps 752 mmHg 67%
    01:00 +5°C° 0 mm 1 mps 752 mmHg 66%
    02:00 +4°C° 0 mm 0 mps 752 mmHg 67%
    03:00 +4°C° 0 mm 0 mps 752 mmHg 67%
    04:00 +3°C° 0 mm 0 mps 752 mmHg 68%
    05:00 +3°C° 0 mm 0 mps 752 mmHg 69%
    06:00 +3°C° 0 mm 0 mps 752 mmHg 71%
    07:00 +2°C° 0 mm 0 mps 752 mmHg 69%
    08:00 +3°C° 0 mm 0 mps 752 mmHg 64%
    09:00 +5°C° 0 mm 0 mps 752 mmHg 59%
    10:00 +6°C° 0 mm 0 mps 751 mmHg 55%
    11:00 +8°C° 0 mm 0 mps 751 mmHg 51%
    12:00 +10°C° 0 mm 1 mps 751 mmHg 47%
    13:00 +11°C° 0 mm 1 mps 751 mmHg 43%
    14:00 +11°C° 0 mm 1 mps 750 mmHg 45%
    15:00 +11°C° 0 mm 1 mps 750 mmHg 46%
    16:00 +11°C° 0 mm 1 mps 750 mmHg 48%
    17:00 +10°C° 0 mm 1 mps 750 mmHg 52%
    18:00 +9°C° 0 mm 1 mps 750 mmHg 57%
    19:00 +7°C° 0 mm 1 mps 750 mmHg 61%
    20:00 +7°C° 0 mm 1 mps 750 mmHg 63%
    21:00 +6°C° 0 mm 1 mps 750 mmHg 66%
    22:00 +5°C° 0 mm 0 mps 750 mmHg 68%
    23:00 +5°C° 0 mm 0 mps 750 mmHg 70%

    Tomorrow, 18 February, Monday

    Time Temperature Precipitation Wind Pressure Humidity
    00:00 +4°C° 0 mm 0 mps 750 mmHg 72%
    01:00 +4°C° 0 mm 0 mps 750 mmHg 74%
    02:00 +4°C° 0 mm 0 mps 749 mmHg 76%
    03:00 +3°C° 0 mm 0 mps 749 mmHg 77%
    04:00 +3°C° 0 mm 0 mps 749 mmHg 79%
    05:00 +3°C° 0 mm 0 mps 749 mmHg 81%
    06:00 +2°C° 0 mm 0 mps 749 mmHg 82%
    07:00 +2°C° 0 mm 0 mps 749 mmHg 83%
    08:00 +3°C° 0 mm 0 mps 749 mmHg 78%
    09:00 +6°C° 0 mm 1 mps 749 mmHg 73%
    10:00 +7°C° 0 mm 1 mps 749 mmHg 67%
    11:00 +8°C° 0 mm 1 mps 749 mmHg 63%
    12:00 +10°C° 0 mm 1 mps 748 mmHg 59%
    13:00 +10°C° 0 mm 2 mps 748 mmHg 54%
    14:00 +10°C° 0 mm 2 mps 748 mmHg 55%
    15:00 +10°C° 0 mm 2 mps 747 mmHg 55%
    16:00 +10°C° 0 mm 2 mps 747 mmHg 56%
    17:00 +9°C° 0 mm 2 mps 747 mmHg 60%
    18:00 +8°C° 0 mm 2 mps 747 mmHg 65%
    19:00 +6°C° 0 mm 2 mps 747 mmHg 69%
    20:00 +7°C° 0 mm 1 mps 747 mmHg 71%
    21:00 +6°C° 0 mm 1 mps 747 mmHg 74%
    22:00 +6°C° 0 mm 1 mps 747 mmHg 76%
    23:00 +5°C° 0 mm 1 mps 747 mmHg 77%

    Day after tomorrow, 19 February, Tuesday

    Time Temperature Precipitation Wind Pressure Humidity
    00:00 +5°C° 0 mm 1 mps 747 mmHg 79%
    01:00 +4°C° 0 mm 1 mps 747 mmHg 80%
    02:00 +3°C° 0 mm 0 mps 747 mmHg 81%
    03:00 +3°C° 0 mm 0 mps 746 mmHg 82%
    04:00 +2°C° 0 mm 0 mps 746 mmHg 83%
    05:00 +2°C° 0 mm 0 mps 746 mmHg 83%
    06:00 +2°C° 0 mm 0 mps 746 mmHg 83%
    07:00 +2°C° 0 mm 0 mps 746 mmHg 83%
    08:00 +3°C° 0 mm 0 mps 747 mmHg 76%
    09:00 +6°C° 0 mm 1 mps 747 mmHg 69%
    10:00 +8°C° 0 mm 1 mps 747 mmHg 61%
    11:00 +9°C° 0 mm 1 mps 747 mmHg 55%
    12:00 +10°C° 0 mm 2 mps 746 mmHg 49%
    13:00 +12°C° 0 mm 2 mps 746 mmHg 43%
    14:00 +12°C° 0 mm 2 mps 746 mmHg 44%
    15:00 +13°C° 0 mm 2 mps 746 mmHg 45%
    16:00 +13°C° 0 mm 2 mps 746 mmHg 46%
    17:00 +10°C° 0 mm 3 mps 746 mmHg 51%
    18:00 +9°C° 0 mm 3 mps 746 mmHg 56%
    19:00 +8°C° 0 mm 3 mps 747 mmHg 61%
    20:00 +8°C° 0 mm 3 mps 747 mmHg 62%
    21:00 +7°C° 0 mm 3 mps 747 mmHg 64%
    22:00 +7°C° 0 mm 3 mps 747 mmHg 66%
    23:00 +7°C° 0 mm 3 mps 748 mmHg 68%

    20 February, Wednesday

    Time Temperature Precipitation Wind Pressure Humidity
    00:00 +7°C° 0 mm 3 mps 748 mmHg 71%
    01:00 +5°C° 0 mm 3 mps 748 mmHg 73%
    02:00 +5°C° 0.1 mm 3 mps 748 mmHg 76%
    03:00 +5°C° 0.1 mm 3 mps 748 mmHg 79%
    04:00 +5°C° 0.1 mm 3 mps 748 mmHg 83%
    05:00 +5°C° 0 mm 3 mps 748 mmHg 83%
    06:00 +5°C° 0 mm 2 mps 749 mmHg 84%
    07:00 +5°C° 0 mm 2 mps 749 mmHg 85%
    08:00 +6°C° 0 mm 2 mps 749 mmHg 78%
    09:00 +7°C° 0 mm 3 mps 749 mmHg 72%
    10:00 +8°C° 0 mm 3 mps 750 mmHg 65%
    11:00 +9°C° 0 mm 3 mps 750 mmHg 60%
    12:00 +10°C° 0 mm 3 mps 749 mmHg 56%
    13:00 +11°C° 0 mm 3 mps 749 mmHg 51%
    14:00 +11°C° 0 mm 3 mps 749 mmHg 52%
    15:00 +11°C° 0 mm 3 mps 749 mmHg 53%
    16:00 +11°C° 0 mm 3 mps 749 mmHg 54%
    17:00 +10°C° 0 mm 3 mps 749 mmHg 60%
    18:00 +9°C° 0 mm 2 mps 750 mmHg 66%
    19:00 +8°C° 0 mm 2 mps 750 mmHg 72%
    20:00 +7°C° 0 mm 2 mps 750 mmHg 74%
    21:00 +6°C° 0 mm 2 mps 751 mmHg 77%
    22:00 +6°C° 0 mm 2 mps 751 mmHg 80%
    23:00 +6°C° 0 mm 2 mps 751 mmHg 81%

    21 February, Thursday

    Time Temperature Precipitation Wind Pressure Humidity
    00:00 +5°C° 0 mm 2 mps 751 mmHg 81%
    01:00 +5°C° 0 mm 2 mps 751 mmHg 82%
    02:00 +4°C° 0 mm 2 mps 751 mmHg 83%
    03:00 +4°C° 0 mm 2 mps 751 mmHg 84%
    04:00 +4°C° 0 mm 2 mps 751 mmHg 85%
    05:00 +4°C° 0 mm 2 mps 752 mmHg 86%
    06:00 +5°C° 0 mm 1 mps 752 mmHg 86%
    07:00 +4°C° 0 mm 1 mps 752 mmHg 87%
    08:00 +6°C° 0 mm 1 mps 752 mmHg 80%
    09:00 +6°C° 0 mm 2 mps 752 mmHg 74%
    10:00 +8°C° 0 mm 2 mps 752 mmHg 68%
    11:00 +9°C° 0 mm 2 mps 752 mmHg 63%
    12:00 +10°C° 0 mm 2 mps 752 mmHg 58%
    13:00 +11°C° 0 mm 3 mps 752 mmHg 53%
    14:00 +12°C° 0 mm 2 mps 751 mmHg 53%
    15:00 +12°C° 0 mm 2 mps 751 mmHg 53%
    16:00 +13°C° 0 mm 2 mps 751 mmHg 53%
    17:00 +10°C° 0 mm 2 mps 751 mmHg 59%
    18:00 +9°C° 0 mm 2 mps 751 mmHg 64%
    19:00 +8°C° 0 mm 2 mps 751 mmHg 69%
    20:00 +8°C° 0 mm 2 mps 752 mmHg 70%
    21:00 +8°C° 0 mm 2 mps 752 mmHg 71%
    22:00 +8°C° 0 mm 2 mps 752 mmHg 72%
    23:00 +8°C° 0 mm 2 mps 752 mmHg 73%

    22 February, Friday

    Time Temperature Precipitation Wind Pressure Humidity
    00:00 +7°C° 0 mm 2 mps 752 mmHg 75%
    01:00 +7°C° 0 mm 2 mps 751 mmHg 76%
    02:00 +7°C° 0 mm 2 mps 751 mmHg 76%
    03:00 +7°C° 0 mm 3 mps 751 mmHg 76%
    04:00 +7°C° 0 mm 3 mps 751 mmHg 76%
    05:00 +7°C° 0 mm 3 mps 751 mmHg 77%
    06:00 +7°C° 0 mm 3 mps 751 mmHg 78%
    07:00 +7°C° 0 mm 3 mps 751 mmHg 79%
    08:00 +7°C° 0.1 mm 3 mps 751 mmHg 79%
    09:00 +6°C° 0.1 mm 4 mps 751 mmHg 78%
    10:00 +7°C° 0.1 mm 4 mps 752 mmHg 78%
    11:00 +7°C° 0.5 mm 5 mps 752 mmHg 79%
    12:00 +7°C° 0.5 mm 5 mps 752 mmHg 80%
    13:00 +7°C° 0.5 mm 5 mps 752 mmHg 81%
    14:00 +7°C° 0.4 mm 5 mps 752 mmHg 79%
    15:00 +7°C° 0.4 mm 4 mps 752 mmHg 76%
    16:00 +7°C° 0.4 mm 4 mps 753 mmHg 74%
    17:00 +7°C° 0 mm 4 mps 753 mmHg 74%
    18:00 +7°C° 0 mm 4 mps 754 mmHg 74%
    19:00 +6°C° 0 mm 4 mps 754 mmHg 73%
    20:00 +6°C° 0 mm 4 mps 755 mmHg 76%
    21:00 +5°C° 0 mm 4 mps 755 mmHg 79%
    22:00 +5°C° 0 mm 4 mps 756 mmHg 82%
    23:00 +4°C° 0.1 mm 4 mps 756 mmHg 81%
    Show more